Weather History for Scottsbluff, NE

Change the Weather History Date:

Wednesday, May 22, 2013

  Actual Average Record
Temperature  
Mean Temperature 54 °F 59 °F  
Max Temperature 67 °F 74 °F 100 °F (2012)
Min Temperature 40 °F 45 °F 29 °F (1915)
Degree Days  
Heating Degree Days 11 6  
Month to date heating degree days 206 216  
Since 1 July heating degree days 6256 6509  
Cooling Degree Days 0 1  
Month to date cooling degree days 35 11  
Year to date cooling degree days 35 13  
Growing Degree Days 2 (Base 50)    
Moisture  
Dew Point 42 °F    
Average Humidity 66    
Maximum Humidity 89    
Minimum Humidity 42    
Precipitation  
Precipitation 0.00 in 0.09 in 1.56 in (1997)
Month to date precipitation 0.94 1.61  
Year to date precipitation 4.12 5.45  
Snow  
Snow 0.00 in 0.00 in - ()
Month to date snowfall 1.0 0.5  
Since 1 July snowfall 42.3 42.1  
Snow Depth 0.00 in    
Sea Level Pressure  
Sea Level Pressure 29.97 in    
Wind  
Wind Speed 10 mph (NNE)    
Max Wind Speed 22 mph    
Max Gust Speed 25 mph    
Visibility 10 miles    
Events      
T = Trace of Precipitation, MM = Missing Value Source: NWS Daily Summary

Daily Weather History Graph

Daily Weather History Graph

Search for Another Location

Airport:

Trip Planner

Search our weather history database for the weather conditions in past years. The results will help you decide how hot, cold, wet, or windy it might be!

Date:

Astronomy

May. 22, 2013 Rise Set
Actual Time 5:27 AM MDT 8:14 PM MDT
Civil Twilight 4:55 AM MDT 8:47 PM MDT
Nautical Twilight 4:14 AM MDT 9:28 PM MDT
Astronomical Twilight 3:27 AM MDT 10:16 PM MDT
Moon 5:37 PM MDT (5/22) 3:35 AM MDT (5/22)
Length of Visible Light 15h 52m
Length of Day
14h 47m
Waxing Gibbous, 92% of the Moon is Illuminated
May 22
Waxing Gibbous
May 24
Full
May 31
Last Quarter
Jun 8
New
Jun 16
First Quarter

Hourly Weather History & Observations

Time (MDT) Temp. Windchill Dew Point Humidity Pressure Visibility Wind Dir Wind Speed Gust Speed Precip Events Conditions
12:53 AM 46.9 °F - 42.1 °F 83% 29.93 in 10.0 mi Calm Calm - N/A   Mostly Cloudy
1:53 AM 46.9 °F - 43.0 °F 86% 29.91 in 10.0 mi West 4.6 mph - N/A   Overcast
2:24 AM 46.4 °F 41.5 °F 39.2 °F 76% 29.96 in 10.0 mi NNW 10.4 mph - N/A   Scattered Clouds
2:53 AM 43.0 °F 40.3 °F 39.0 °F 86% 29.92 in 10.0 mi West 4.6 mph - N/A   Clear
3:51 AM 42.8 °F 38.6 °F 37.4 °F 81% 29.97 in 10.0 mi West 6.9 mph - N/A   Mostly Cloudy
3:53 AM 42.1 °F 37.7 °F 39.0 °F 89% 29.92 in 10.0 mi West 6.9 mph - N/A   Mostly Cloudy
4:53 AM 43.0 °F 39.5 °F - N/A% 29.92 in 10.0 mi WNW 5.8 mph - N/A   Overcast
5:23 AM 41.0 °F 37.1 °F - N/A% 29.97 in 10.0 mi NW 5.8 mph - N/A   Scattered Clouds
5:53 AM 39.9 °F 37.8 °F - N/A% 29.93 in 10.0 mi NW 3.5 mph - N/A   Clear
6:53 AM 45.0 °F 43.5 °F - N/A% 29.93 in 10.0 mi NW 3.5 mph - N/A   Clear
7:53 AM 48.0 °F - 41.0 °F 77% 29.95 in 10.0 mi WNW 4.6 mph - N/A   Mostly Cloudy
8:00 AM 48.2 °F - 41.0 °F 76% 29.99 in 10.0 mi WNW 4.6 mph - N/A   Mostly Cloudy
8:53 AM 51.1 °F - 39.9 °F 66% 29.96 in 10.0 mi North 4.6 mph - N/A   Mostly Cloudy
9:53 AM 54.0 °F - 41.0 °F 62% 29.95 in 10.0 mi Variable 3.5 mph - N/A   Mostly Cloudy
10:34 AM 55.4 °F - 41.0 °F 58% 29.99 in 10.0 mi NE 4.6 mph - N/A   Scattered Clouds
10:53 AM 57.0 °F - 41.0 °F 55% 29.94 in 10.0 mi NNW 8.1 mph - N/A   Partly Cloudy
11:53 AM 61.0 °F - 41.0 °F 48% 29.93 in 10.0 mi Variable 3.5 mph - N/A   Clear
12:53 PM 61.0 °F - 41.0 °F 48% 29.92 in 10.0 mi Calm Calm - N/A   Clear
1:53 PM 66.0 °F - 42.1 °F 42% 29.90 in 10.0 mi NE 8.1 mph - N/A   Partly Cloudy
2:53 PM 66.9 °F - 42.1 °F 40% 29.90 in 10.0 mi ENE 13.8 mph 20.7 mph N/A   Clear
3:53 PM 66.9 °F - 43.0 °F 42% 29.91 in 10.0 mi East 11.5 mph 17.3 mph N/A   Partly Cloudy
4:53 PM 64.0 °F - 45.0 °F 50% 29.93 in 10.0 mi NE 16.1 mph - N/A   Clear
5:53 PM 61.0 °F - 44.1 °F 54% 29.96 in 10.0 mi ENE 18.4 mph - N/A   Clear
6:53 PM 57.9 °F - 44.1 °F 60% 29.99 in 10.0 mi ENE 18.4 mph - N/A   Clear
7:53 PM 54.0 °F - 45.0 °F 72% 30.01 in 10.0 mi ENE 17.3 mph - N/A   Clear
8:53 PM 52.0 °F - 44.1 °F 74% 30.04 in 10.0 mi ENE 17.3 mph - N/A   Clear
9:53 PM 50.0 °F - 43.0 °F 77% 30.06 in 10.0 mi East 13.8 mph - N/A   Clear
10:33 PM 51.8 °F - 44.6 °F 76% 30.11 in 10.0 mi ENE 15.0 mph - N/A   Mostly Cloudy
10:53 PM 50.0 °F - 45.0 °F 83% 30.06 in 10.0 mi ENE 17.3 mph - N/A   Overcast
11:25 PM 50.0 °F - 44.6 °F 82% 30.10 in 10.0 mi ENE 16.1 mph - N/A   Overcast
11:53 PM 50.0 °F - 43.0 °F 77% 30.07 in 10.0 mi ENE 18.4 mph - N/A   Overcast